Torna al catalogo

DELTA 1 DEB

AttivoSSO
NORAD 7158·DEBRIS·🇺🇸 United States

Lanciato Nov 6, 1973 da Vandenberg Space Force Base

Loading…

Prossimi Passaggi (prossime 24 ore)

TLE

AggiornatoSource: Space-Track

Epoca: Sep 13, 2026, 01:23 UTC

1 07158U 73086DW  26256.05798694 -.00000033  00000-0  10940-3 0  9998
2 07158 102.4372 287.9635 0041003 308.0409  79.1171 12.31773841375945

Traccia DELTA 1 DEB in tempo reale con AllMySat

Download on the App Store